Wind_Speed
10 10 10 10 10 10 10 10 10 9 9 9 9 9 9 10 10 11 11 11 11 11 10 10 10 9 9 9 8 7 6 6 6 6 5 5 5 4 3 3 3 3
10 10 10 10 9 9 9 10 10 9 9 9 9 8 8 9 9 10 11 11 11 11 11 11 10 10 9 9 9 8 7 7 7 7 7 6 5 5 5 5 4 4
11 10 10 10 9 9 9 10 9 9 8 8 8 9 8 8 9 9 10 10 11 11 10 10 10 10 10 9 9 9 8 8 8 8 8 7 7 6 6 6 6 5
12 11 11 11 10 10 9 9 9 8 8 8 8 9 9 9 9 9 9 10 10 10 10 10 10 10 10 9 9 9 9 9 9 9 9 9 8 8 8 8 7 7
12 12 12 12 12 11 10 9 9 9 8 8 8 9 9 9 9 9 10 10 10 10 10 10 10 10 10 9 9 9 9 9 9 9 9 10 10 9 9 9 9 9
13 13 13 13 13 12 11 10 10 10 9 9 8 9 9 10 10 10 11 10 10 10 10 10 10 10 10 10 9 9 9 9 9 9 9 10 10 10 11 10 10 10
13 13 14 14 14 13 13 12 11 11 11 10 9 9 9 10 10 11 12 12 11 11 11 11 11 11 11 10 10 10 9 9 9 9 10 10 10 11 11 11 11 11
15 15 15 16 15 15 14 13 12 12 12 11 11 10 10 10 11 11 12 12 12 12 12 12 12 11 11 11 11 10 10 10 10 10 11 11 11 11 11 11 11 11
17 17 17 17 16 16 15 14 14 13 13 13 12 12 12 11 11 11 12 12 12 13 13 13 12 12 11 11 11 11 11 11 11 11 11 11 11 11 12 12 12 12
19 19 18 17 17 17 16 16 15 15 14 14 14 14 13 13 12 12 12 12 12 12 13 13 13 12 12 12 11 11 10 10 10 11 11 11 11 11 12 12 12 12
21 21 20 19 18 18 18 17 17 17 16 16 16 15 15 15 14 14 13 12 12 13 13 13 13 13 13 12 12 12 11 11 11 11 11 11 11 11 11 11 11 11
22 22 22 21 21 20 20 19 19 19 18 18 17 17 17 16 16 16 15 15 14 14 14 14 14 14 13 13 13 13 13 12 12 12 12 11 11 11 11 11 11 11
23 23 23 23 23 22 22 22 21 20 20 20 19 19 19 18 18 17 17 17 16 16 16 15 15 15 14 14 14 14 14 14 13 13 13 13 12 12 12 12 12 12
24 24 24 24 24 24 24 24 23 22 22 21 21 21 21 20 20 19 19 18 18 18 18 17 16 16 15 15 15 15 15 15 15 15 15 14 14 14 14 14 14 14
25 25 25 25 25 25 25 25 24 24 23 23 23 22 22 22 22 22 21 20 20 20 20 19 18 18 17 17 17 17 17 17 17 17 17 17 16 16 16 16 16 16
24 24 24 24 24 24 24 24 24 24 24 24 24 23 23 23 23 24 24 23 22 22 21 21 20 20 19 19 19 19 19 19 19 19 19 19 19 18 18 18 18 18
24 24 24 23 23 23 23 23 23 23 24 24 24 24 24 24 24 24 24 24 24 24 23 23 22 22 22 22 22 22 22 22 21 21 21 21 20 20 20 20 20 20
26 25 25 25 24 24 24 24 23 23 23 24 25 25 24 24 24 24 24 25 25 26 26 25 24 24 24 24 24 24 24 24 23 23 23 23 22 22 21 21 21 21
28 27 27 27 27 26 26 26 25 25 25 25 25 25 25 25 24 24 25 25 25 26 26 27 26 26 26 26 26 26 26 26 25 25 25 24 24 24 24 23 23 23
27 27 27 27 28 28 28 28 27 26 26 26 27 27 26 26 25 24 24 25 25 26 26 27 28 28 27 28 27 27 27 27 26 26 26 26 26 26 26 25 25 24
24 24 24 25 26 27 28 28 27 26 25 25 25 25 25 24 24 23 24 24 25 26 26 27 27 27 27 28 28 29 29 28 28 28 28 28 28 28 28 27 26 26
22 21 22 22 23 24 24 25 25 23 22 22 22 22 22 22 22 23 23 24 24 24 25 26 26 26 27 28 28 28 29 28 28 28 28 28 29 30 30 29 28 27
18 17 17 19 20 19 20 22 22 21 21 21 21 20 21 21 20 21 22 23 24 25 25 26 26 26 27 27 27 27 27 28 27 27 27 27 28 30 31 30 30 29
14 12 12 13 14 14 16 18 19 19 20 22 22 22 21 20 19 20 21 23 24 25 26 27 27 26 26 27 27 27 27 27 26 26 25 26 27 29 31 31 31 30
14 15 14 13 13 13 14 14 15 16 17 21 24 23 21 20 20 21 22 23 24 25 26 27 27 27 26 26 27 27 27 27 27 27 26 27 28 29 31 32 33 32
19 20 18 17 17 16 17 17 18 18 18 19 21 21 19 20 22 23 24 25 26 26 27 27 27 27 27 28 28 28 28 29 30 30 29 29 30 31 32 33 34 34
Wind_Direction
175 176 175 172 169 167 163 162 163 165 168 173 178 181 182 183 184 185 184 185 187 188 188 190 192 191 189 188 191 198 200 196 192 194 202 204 199 194 200 215 218 216
184 187 186 183 179 175 172 170 168 171 175 178 179 179 181 184 187 188 188 188 191 192 192 194 195 194 195 195 199 205 210 210 207 207 212 213 209 205 211 221 228 230
191 193 191 191 191 188 183 178 175 176 181 182 181 180 180 185 188 190 192 193 195 197 198 198 199 200 200 200 203 209 214 217 217 217 220 220 218 215 216 220 226 233
195 196 195 196 199 199 192 187 183 183 185 186 185 184 181 183 186 189 193 196 196 198 199 201 203 205 207 209 214 218 220 220 220 220 223 224 223 223 224 223 226 234
199 199 199 199 202 204 201 196 193 192 193 191 189 188 187 187 186 187 191 194 194 194 195 199 202 206 210 216 222 226 226 224 221 220 223 226 226 227 229 229 229 234
204 203 203 201 201 203 204 205 204 202 201 199 196 194 194 194 193 191 191 192 194 194 194 197 200 204 209 215 220 223 224 227 226 223 224 228 229 231 232 232 233 234
209 207 206 204 202 202 204 207 208 209 209 207 205 205 204 202 201 200 197 196 196 198 199 201 203 206 210 213 216 220 222 226 229 228 229 232 233 234 234 234 235 236
210 210 209 208 204 203 204 207 210 212 214 212 211 212 213 212 210 208 206 205 203 204 205 207 208 209 212 215 218 222 225 227 229 229 231 234 236 238 239 239 238 238
210 211 212 212 209 207 207 209 213 215 217 216 215 215 217 219 219 216 215 214 213 212 210 208 209 208 209 212 216 221 225 228 230 231 232 234 238 241 244 244 243 242
211 213 214 216 215 213 212 213 217 220 220 220 218 217 216 219 222 222 221 222 223 222 219 215 212 209 207 208 212 217 222 225 228 230 233 235 237 241 244 246 247 247
211 213 215 216 217 217 217 217 218 221 223 225 224 221 217 217 219 220 222 223 225 227 228 227 224 220 218 217 217 219 221 224 226 227 230 233 235 238 241 244 245 246
214 214 215 216 217 219 220 220 221 221 222 225 227 228 226 222 219 219 219 219 221 224 226 230 232 232 231 230 230 230 229 229 230 229 230 232 234 238 241 242 243 243
219 219 219 218 219 220 222 223 224 224 224 225 226 229 231 231 228 224 222 220 221 222 223 226 231 234 236 237 238 239 238 238 238 235 234 235 237 241 244 245 245 244
221 223 224 224 224 223 225 226 228 228 229 229 229 229 231 233 233 231 229 226 225 225 226 228 229 232 235 238 241 244 244 244 243 242 240 239 241 244 247 249 250 249
222 224 226 228 228 228 229 230 231 233 233 234 234 234 234 234 235 235 233 231 229 229 230 231 231 231 233 236 240 244 247 248 248 246 245 243 244 245 248 251 253 253
225 225 226 228 230 231 232 232 233 235 237 238 238 239 239 238 238 238 237 235 233 231 232 233 233 232 233 235 239 242 245 247 248 249 248 247 247 247 248 251 253 255
228 228 228 228 229 232 235 236 237 238 239 240 241 241 242 243 243 243 242 241 238 236 235 235 235 235 235 236 239 242 244 246 247 249 250 251 252 252 252 252 254 256
231 231 231 231 231 234 238 241 242 244 243 241 240 240 240 241 243 245 246 246 244 242 239 237 237 237 237 238 240 243 246 248 249 250 251 253 255 257 257 257 257 258
231 232 233 234 235 237 240 244 248 250 250 247 243 241 240 239 240 242 244 246 247 247 246 244 242 239 239 240 242 244 247 250 252 253 254 255 257 259 261 262 263 263
228 230 233 235 238 240 243 246 249 251 252 251 248 244 242 240 240 241 243 245 247 248 249 250 248 246 244 244 244 246 248 251 254 257 258 260 260 261 262 263 264 265
230 233 236 238 240 242 244 246 247 249 250 250 248 246 244 243 243 243 245 247 249 250 251 253 253 252 251 250 249 249 250 252 255 258 261 264 264 264 264 263 263 264
236 240 243 243 241 240 241 242 243 244 245 244 245 247 247 246 246 246 247 249 251 253 254 255 255 255 255 255 254 253 254 255 256 259 262 266 268 268 267 266 265 265
228 236 244 245 240 237 238 241 242 243 245 247 249 249 247 246 246 246 248 251 253 254 254 255 257 258 258 258 257 257 257 257 257 259 262 266 268 270 270 269 268 267
209 219 235 239 236 234 236 243 249 250 251 252 249 244 240 243 247 249 251 254 255 256 256 256 257 258 259 258 258 258 259 259 260 261 263 266 268 270 271 271 270 268
207 211 216 215 219 225 230 238 246 247 246 249 249 245 240 242 248 252 254 255 257 259 260 259 259 258 258 258 258 259 258 257 258 260 261 263 266 268 270 270 269 268
213 219 220 216 218 224 228 233 238 238 236 240 250 255 254 252 252 253 255 257 259 261 262 262 262 261 261 260 260 261 260 259 259 260 260 262 264 266 267 266 266 266
Height
3248 3249 3250 3251 3252 3253 3253 3254 3255 3256 3257 3257 3258 3259 3260 3260 3261 3262 3263 3264 3265 3266 3267 3268 3269 3270 3271 3272 3272 3273 3274 3274 3274 3275 3276 3276 3277 3278 3278 3279 3279 3280
3248 3249 3250 3250 3251 3252 3253 3254 3255 3256 3256 3257 3258 3259 3260 3260 3261 3262 3263 3264 3265 3266 3267 3268 3269 3269 3270 3271 3272 3273 3273 3274 3274 3275 3275 3276 3276 3277 3278 3278 3279 3279
3247 3248 3249 3250 3251 3252 3253 3254 3254 3255 3256 3257 3258 3259 3260 3260 3261 3262 3263 3263 3264 3265 3266 3267 3268 3269 3270 3271 3271 3272 3273 3273 3274 3274 3275 3275 3276 3276 3277 3278 3278 3279
3247 3247 3248 3249 3250 3252 3252 3253 3254 3255 3256 3257 3258 3258 3259 3260 3261 3262 3262 3263 3264 3265 3266 3267 3267 3268 3269 3270 3271 3272 3272 3273 3273 3274 3274 3275 3275 3276 3276 3277 3277 3278
3246 3247 3248 3249 3250 3251 3252 3253 3254 3255 3256 3256 3257 3258 3259 3259 3260 3261 3262 3263 3264 3264 3265 3266 3267 3268 3269 3269 3270 3271 3272 3272 3273 3273 3274 3274 3274 3275 3275 3276 3276 3277
3245 3246 3247 3248 3249 3251 3252 3252 3253 3254 3255 3256 3257 3258 3258 3259 3260 3260 3261 3262 3263 3264 3264 3265 3266 3267 3268 3268 3269 3270 3271 3271 3272 3272 3273 3273 3274 3274 3274 3275 3275 3275
3244 3245 3246 3247 3248 3250 3251 3252 3253 3254 3254 3255 3256 3257 3258 3259 3259 3260 3260 3261 3262 3263 3264 3264 3265 3266 3266 3267 3268 3269 3269 3270 3271 3272 3272 3272 3273 3273 3273 3274 3274 3274
3243 3244 3245 3246 3247 3249 3250 3251 3252 3253 3253 3254 3255 3256 3257 3258 3259 3260 3260 3261 3261 3262 3263 3264 3264 3265 3265 3266 3267 3268 3268 3269 3270 3270 3271 3271 3272 3272 3273 3273 3273 3273
3242 3243 3244 3245 3246 3248 3249 3250 3251 3252 3253 3253 3254 3255 3256 3257 3258 3259 3260 3260 3261 3262 3262 3263 3263 3264 3265 3265 3266 3267 3267 3268 3269 3269 3270 3270 3271 3271 3272 3272 3272 3272
3240 3242 3243 3245 3246 3247 3248 3249 3250 3251 3252 3253 3253 3254 3255 3256 3257 3258 3259 3260 3261 3261 3262 3262 3263 3263 3264 3264 3265 3266 3266 3267 3268 3268 3269 3269 3269 3270 3270 3271 3271 3271
3238 3240 3242 3243 3245 3246 3246 3247 3248 3249 3251 3252 3252 3253 3254 3254 3255 3256 3257 3259 3259 3260 3261 3262 3263 3263 3264 3264 3264 3265 3265 3266 3267 3267 3268 3268 3268 3269 3269 3269 3270 3270
3236 3238 3239 3241 3242 3244 3245 3246 3246 3247 3248 3250 3251 3252 3253 3253 3254 3255 3256 3257 3258 3259 3260 3261 3262 3263 3263 3264 3264 3264 3264 3265 3265 3266 3266 3267 3267 3267 3268 3268 3268 3269
3235 3236 3237 3239 3240 3242 3243 3244 3245 3246 3247 3248 3249 3250 3251 3252 3253 3254 3254 3255 3256 3257 3257 3258 3260 3261 3262 3263 3263 3263 3264 3264 3264 3265 3265 3265 3266 3266 3266 3267 3267 3267
3232 3234 3235 3237 3239 3240 3241 3242 3243 3244 3245 3246 3247 3248 3249 3250 3252 3253 3253 3254 3254 3255 3256 3256 3257 3258 3260 3261 3262 3262 3263 3263 3263 3263 3264 3264 3264 3265 3265 3265 3266 3266
3230 3231 3233 3235 3237 3238 3239 3240 3241 3242 3243 3244 3245 3246 3247 3248 3250 3251 3252 3252 3253 3254 3254 3255 3256 3257 3257 3258 3259 3260 3261 3262 3262 3262 3262 3262 3263 3263 3263 3264 3264 3264
3228 3229 3231 3233 3235 3236 3237 3238 3239 3240 3241 3242 3243 3244 3245 3247 3248 3249 3250 3251 3252 3252 3253 3253 3254 3255 3255 3256 3257 3257 3258 3259 3260 3260 3261 3261 3261 3261 3261 3262 3262 3262
3226 3227 3228 3230 3232 3233 3235 3236 3237 3238 3239 3240 3241 3242 3243 3244 3246 3247 3248 3249 3250 3250 3251 3251 3252 3253 3253 3254 3254 3255 3255 3256 3257 3258 3258 3259 3259 3259 3260 3260 3260 3260
3223 3224 3226 3227 3228 3230 3232 3233 3234 3235 3236 3237 3238 3239 3240 3241 3243 3244 3245 3246 3247 3248 3249 3249 3250 3250 3251 3251 3252 3252 3253 3254 3255 3255 3256 3257 3257 3258 3258 3258 3258 3258
3219 3220 3222 3223 3225 3227 3229 3230 3231 3232 3233 3234 3235 3236 3237 3238 3239 3241 3242 3243 3244 3245 3246 3247 3247 3248 3248 3249 3250 3250 3250 3251 3252 3253 3254 3255 3255 3256 3256 3256 3257 3257
3215 3217 3218 3220 3222 3224 3225 3227 3228 3229 3229 3230 3231 3232 3233 3235 3236 3237 3239 3240 3241 3242 3243 3244 3244 3245 3246 3247 3247 3248 3248 3249 3250 3250 3251 3252 3253 3253 3253 3254 3254 3254
3212 3214 3215 3216 3218 3220 3222 3223 3224 3225 3226 3227 3228 3229 3231 3232 3234 3234 3235 3237 3238 3239 3240 3240 3241 3242 3243 3244 3245 3245 3246 3246 3247 3248 3248 3249 3250 3250 3250 3251 3251 3251
3210 3211 3212 3213 3214 3216 3218 3219 3220 3221 3222 3224 3226 3227 3229 3230 3231 3231 3232 3233 3234 3236 3237 3237 3238 3239 3240 3241 3241 3242 3243 3243 3244 3244 3245 3246 3246 3247 3247 3247 3248 3248
3207 3209 3210 3210 3211 3212 3214 3216 3217 3218 3219 3221 3223 3225 3227 3227 3228 3228 3229 3230 3231 3232 3233 3233 3235 3236 3237 3237 3238 3239 3239 3240 3240 3241 3241 3242 3243 3243 3244 3244 3244 3244
3206 3208 3209 3209 3210 3210 3212 3214 3215 3216 3217 3219 3221 3222 3223 3223 3224 3225 3226 3227 3227 3228 3229 3230 3231 3232 3233 3234 3235 3236 3236 3236 3237 3237 3238 3238 3239 3240 3240 3241 3241 3241
3206 3207 3208 3208 3210 3210 3211 3213 3214 3215 3216 3218 3219 3219 3219 3219 3220 3221 3222 3223 3224 3225 3225 3226 3227 3228 3229 3230 3231 3232 3233 3233 3233 3234 3234 3235 3236 3237 3237 3237 3238 3237
3203 3204 3204 3206 3207 3209 3210 3211 3211 3212 3214 3216 3216 3215 3215 3215 3217 3218 3219 3220 3221 3221 3222 3222 3223 3224 3225 3226 3227 3228 3229 3229 3230 3230 3230 3231 3232 3232 3233 3233 3234 3234